www.pogodaiklimat.ru
ПОГОДА в Сиракузы
Время
и дата
07:54 22.05
08:54 22.05
09:54 22.05
10:54 22.05
11:54 22.05
12:54 22.05
13:37 22.05
13:54 22.05
14:04 22.05
14:16 22.05
14:21 22.05
14:25 22.05
14:33 22.05
14:54 22.05
15:14 22.05
15:54 22.05
16:46 22.05
16:54 22.05
17:45 22.05
17:54 22.05
18:17 22.05
18:54 22.05
19:16 22.05
19:48 22.05
19:54 22.05
20:54 22.05
21:54 22.05
22:54 22.05
23:54 22.05
00:54 23.05
01:54 23.05
02:54 23.05
03:54 23.05
04:54 23.05
05:54 23.05
06:54 23.05
07:54 23.05
08:27 23.05
08:54 23.05
09:54 23.05
10:54 23.05
11:54 23.05
12:54 23.05
13:54 23.05
14:54 23.05
15:54 23.05
16:54 23.05
17:54 23.05
Ветер
(напр.,м/с)
Видим. Явления Облачность Т
(С)
Тd
(С)
f
(%)
Тe
(С)
Тes
(С)
Комфортность P
(гПа)
Po
(гПа)
Тmin
(С)
Tmax
(С)
R
(мм)
R24
(мм)
S
(см)
ЮВ 1 16 км 8/0 3900 м
[Ac Ci]
+22.8 +16.7 68 +27 +29 душно 1014.6 999.8
З 2 16 км 10/0 3900 м
[Ac]
+23.9 +16.1 62 +27 +29 жарко 1014.7 999.8
ЮЗ 2 16 км 10/0 3900 м
[Ac]
+24.4 +15.6 58 +27 +30 жарко 1014.2 999.5
ЮЗ 3 16 км 8/0 3300 м
[Ac]
+26.1 +15.6 52 +29 +32 жарко 1014.0 999.1
З 2 16 км 10/0 3300 м
[Ac]
+26.1 +15.6 52 +29 +33 жарко 1013.6 998.8
З 3 16 км 10/8 1200 м
[Ac]
+26.1 +16.7 56 +30 +31 душно 1013.8 999.1 +20.6 +26.7
З 4
{5}
3 км дождь 10/8 1200 м
[Ac]
+23.9 +17.2 66 +28 +28 душно 999.1
З 4
{5}
2 км сильный дождь 10/10 750 м +21.1 +18.3 84 +25 +25 комфорт 1014.7 999.8
СЗ 3
{4}
5 км дождь, дымка 10/10 750 м
[Cb]
+20.0 +18.3 90 +23 +23 комфорт 1000.1
З 3
{5}
2 км сильный дождь, дымка 10/10 390 м
[Cb]
+18.9 +17.2 90 +20 +20 1000.5
З 3 3 км сильный дождь, дымка 10/10 300 м
[Cb]
+18.3 +16.7 90 +18 +18 1000.8
З 3 5 км слабый дождь, дымка 10/10 270 м
[Cb]
+18.3 +16.7 90 +18 +18 1000.8
З 4
{4}
16 км 10/10 240 м
[Cb]
+18.3 +16.7 90 +18 +18 1000.8
З 3 16 км 10/10 270 м +17.2 +15.6 90 +16 +16 1016.3 1001.5
З 3
{6}
16 км 10/10 330 м +16.7 +14.4 86 +15 +15 1002.1
СЗ 3 16 км 10/10 390 м +15.6 +13.3 86 +14 +14 1017.9 1002.8 6.1
З 3 16 км 10/10 480 м +15.6 +12.2 80 +14 +14 1003.8
З 3 16 км 10/10 510 м +15.0 +12.2 83 +13 +13 1018.9 1003.8
З 3 16 км 10/5 420 м
[Ac]
+13.3 +11.1 87 +11 +11 1004.5
З 3 16 км 10/5 390 м
[Ac]
+13.3 +11.1 87 +11 +11 1019.8 1004.5
З 3
{5}
16 км 10/8 300 м
[Ac]
+12.8 +10.6 86 +10 +10 1004.8
СЗ 3
{4}
16 км 10/10 360 м +12.2 +10.0 86 +9 +9 1020.9 1005.8 +12.2 +27.2 6.1
З 2 16 км 8/8 390 м
[Ac]
+12.2 +9.4 83 +10 +10 1005.8
З 2 16 км 5/5 420 м +11.0 +9.0 87 +8 +8 1006.5
З 2 16 км 5/5 420 м +11.7 +9.4 86 +9 +10 1021.8 1006.5
З 1 16 км 2/2 900 м +10.6 +8.9 89 +8 +8 1022.3 1007.1
З 1 16 км 8/8 1020 м
[Ac]
+11.1 +8.9 86 +9 +9 1022.9 1007.8
З 2 16 км 8/8 1260 м +10.6 +8.9 89 +8 +8 1023.0 1007.8
З 2 16 км 2/2 1200 м +10.0 +8.3 89 +7 +7 1023.1 1008.1
З 1 16 км 2/2 930 м +10.0 +7.8 86 +8 +8 1023.1 1008.1 +10.0 +12.2
З 1 16 км 8/2 1410 м
[Ci]
+9.4 +7.2 86 +7 +7 1023.5 1008.5
З 1 16 км 8/0 7500 м
[Ci]
+8.9 +6.7 86 +6 +6 1023.9 1008.5
З 1 16 км 8/2 1200 м
[Ci]
+8.3 +6.7 90 +6 +6 1024.2 1008.8
СЗ 1 16 км 8/8 1080 м +8.9 +6.7 86 +7 +7 1024.9 1009.5
З 1 16 км 8/8 1230 м
[Ac]
+9.4 +7.2 86 +7 +7 1025.3 1010.1
З 1 16 км 8/8 300 м
[Ac Ci]
+10.0 +7.8 86 +8 +9 1025.9 1010.5 +8.3 +10.0 6.1
штиль 0 16 км 8/8 м
[Ci]
+12.2 +8.9 80 +12 +13 1025.9 1010.5
СЗ 1 16 км 8/8 480 м
[Ci]
+12.2 +8.3 77 +11 +13 1010.8
С 1 16 км 8/8 540 м
[Ci]
+14.4 +8.9 70 +14 +15 1026.2 1010.8
СВ 2 16 км 8/5 780 м
[Ci]
+15.0 +6.7 58 +14 +17 1026.0 1010.5
С 1 16 км 8/8 990 м
[Ci]
+15.6 +6.7 55 +16 +19 1025.9 1010.5
СВ 1 16 км 8/8 1200 м
[Ac Ci]
+16.7 +5.6 48 +17 +20 1025.5 1010.1
СЗ 2 16 км 10/8 1440 м
[Ac Ci]
+16.7 +6.1 50 +16 +18 1025.1 1009.8 +10.0 +17.8
С 2 16 км 10/5 1440 м
[Ac]
+16.7 +6.1 50 +16 +18 1024.7 1009.5
СЗ 1 16 км 8/5 1500 м
[Ac]
+16.7 +5.0 46 +17 +21 1024.6 1009.1
СЗ 1 16 км 8/5 1500 м
[Ac]
+17.2 +5.0 44 +17 +21 1024.5 1009.1
СЗ 2 16 км 10/2 1500 м
[Ac]
+16.7 +5.6 48 +16 +18 1024.5 1009.1
С 2 16 км 10/2 1500 м
[Ac]
+15.0 +6.1 55 +14 +15 1024.6 1009.5
Местоположение метеостанции Syracuse Hancock International Airport: широта 43.1092 долгота -76.1033 высота над уровнем моря 128 м.
В архиве по умолчанию представлена погода в Сиракузы за последние 1-2 суток. Обновление информации о фактической погоде в базе происходит ежечасно! Архивные данные за месяц целиком и за предыдущие месяцы Вы можете получить, выбрав интересующий диапазон дат из раскрывающегося списка и нажав кнопку "Ввод!".
Внимание! Архив погоды МЕТАР в базе сайта по станциям, не включенным в климатический монитор, хранится не более 60 дней. Нет смысла пытаться выбрать более раннюю дату.
*Определитесь, кто Вы:
Внимание! Время в таблицах - местное (без учета летнего времени). Для получения всемирного времени необходимо вычесть поправку, которая равна -5 ч.
Смотрите также архив погоды в соседних городах и на ближайших метеорологических станциях:
Партнеры нашего сайта:      
Пояснения к столбцам:
  • Ветер - указаны скорость ветра в м/с - средняя за 10 мин, порывы в срок и между сроками (в фигурных скобках) и направление, откуда дует ветер: С - северный,
  • СВ - северо-восточный, В - восточный, ЮВ - юго-восточный, Ю - южный, ЮЗ - юго-западный, З - западный, СЗ - северо-западный.
  • Видимость - горизонтальная дальность видимости в метрах или километрах. При видимости от 1 до 10 км при отсутствии осадков обычно наблюдается дымка, при ухудшении видимости до 1 км и менее - туман. В сухую погоду видимость может ухудшаться дымом, пылью или мглою.
  • Явления - указаны атмосферные явления, наблюдавшиеся в срок или в последний час перед сроком; фигурными скобками обозначены явления, наблюдавшиеся между сроками (за 1-3 часа до срока); квадратными скобками обозначены град или гололедные отложения с указанием их диаметра в мм.
  • Облачность - указаны через наклонную черту общая и нижняя облачность в баллах и высота нижней границы облаков в метрах; квадратными скобками обозначены формы облаков: Ci - перистые, Cs - перисто-слоистые, Cc - перисто-кучевые, Ac - высококучевые, As - высокослоистые, Sc - слоисто-кучевые, Ns - слоисто-дождевые, Cu - кучевые, Cb - кучево-дождевые. Подробнее классификацию облаков см. в Атласе облаков (PDF).
  • T - Температура воздуха - температура, измеренная на высоте 2 м над землей.
  • Td - Температура точки росы - температура, при понижении до которой содержащийся в воздухе водяной пар достигнет насыщения.
  • f - Относительная влажность воздуха - влажноcть воздуха, измеренная на высоте 2 м над землей.
  • Te - Эффективная температура - температура, которую ощущает одетый по сезону человек в тени. Характеристика душности погоды. При расчете учитывается влияние влажности воздуха и скорости ветра на теплоощущения человека.
  • Tes - Эффективная температура на солнце - температура, которую ощущает человек, с поправкой на солнечный нагрев. Характеристика знойности погоды. Зависит от высоты солнца над горизонтом, облачности и скорости ветра. Ночью, в пасмурную погоду, а также при ветре 12 м/с и более поправка равна нулю.
  • P - Атмосферное давление - приведенное к уровню моря атмосферное давление.
  • Po - Атмосферное давление - измеренное на уровне метеостанции атмосферное давление.
  • Tmin - Минимальная температура - минимум температуры воздуха на высоте 2 м над землей.
  • Tmax - Максимальная температура - максимум температуры воздуха на высоте 2 м над землей.
  • R - Количество осадков - Количество выпавших осадков за период времени, мм. При наведении курсора мыши на число - период времени, за который выпало указанное количество осадков.
  • R24 - Количество осадков - Количество выпавших осадков за 24 часа, мм.
  • S - Снежный покров - Высота снежного покрова, см. При наведении курсора мыши на число - состояние снежного покрова и степень покрытия местности в баллах.